Погода в Ориент Бэй

Сен-Мартен     18°04′56″N   63°02′53″W
темп.,
°C
ветер,
м/с
пор.,
м/с
влажн.,
%
обл.,
%
осадки,
мм/ч
давл.,
гПа
погр.,
м
22 апреля, чт
чт2223:00+26в910752 0.1 10171084
02:00+26в89711 0.1 10161170
05:00+26в910759 0.3 10161024
08:00+26в1010711 0.4 10181073
11:00+26вюв911755 0.0 10171080
14:00+27вюв78715 0.1 10161158
17:00+26вюв78748 0.1 1015886
20:00+26в897719 0.9 1016779
23 апреля, пт
пт2323:00+26в89761 2.1 1017855
02:00+25вюв7878100 3.0 1015681
05:00+26вюв8869100 0.4 10151077
08:00+26вюв88731 0.4 10171010
11:00+26вюв77725 0.0 1017992
14:00+26вюв66718 0.0 1016969
17:00+26в66690 0.0 1015944
20:00+26в66680 0.0 10161005
24 апреля, сб
сб2423:00+26в66650 0.0 10171030
02:00+26в777625 0.1 1015942
05:00+26в77720 0.3 10151044
08:00+26в77722 0.4 1017879
11:00+26в66675 0.0 1018938
14:00+26в567428 0.0 1016858
17:00+26в77685 0.0 10151014
20:00+26в78685 0.0 10161035
25 апреля, вс
вс2523:00+26в89710 0.0 10161103
02:00+26в88720 0.1 10151069
05:00+25в88771 0.3 1015876
08:00+26в99705 1.6 10171049
11:00+26в89675 0.0 10171030
14:00+26в78685 0.0 10151021
17:00+26в787138 0.0 1014977
20:00+26в897820 0.3 1015887
26 апреля, пн
пн2623:00+26в910797 2.2 1016849
02:00+26в997037 2.9 10141244
05:00+26вюв99685 0.0 10141325
08:00+26вюв896835 0.0 10161273
11:00+26вюв78745 0.1 1016898
14:00+26юв67750 0.6 1014788
17:00+27в66681 0.0 10131052
20:00+26в66685 0.0 10141041